KX4BE Weather Reports


time (UTC)temp
C
wind
direction
speed
KPH
gust
KPH
rain 1hr
cm
rain 24hr
cm
rain mn
cm
humidity
%
barometer
mb
20260906124347 23 209 0.0 4.8 0.00 0.99 0.00 92 1016.2
20260906123845 23 221 0.0 8.0 0.00 0.99 0.00 92 1016.1
20260906123341 23 187 1.6 8.0 0.00 0.99 0.00 92 1016.0
20260906122835 23 231 1.6 6.4 0.00 0.99 0.00 93 1016.0
20260906122334 23 192 0.0 4.8 0.00 0.99 0.00 93 1016.0
20260906121831 23 216 0.0 1.6 0.00 0.99 0.00 93 1016.0
20260906121329 23 216 0.0 3.2 0.00 0.99 0.00 93 1015.9
20260906120848 23 216 0.0 1.6 0.00 0.99 0.00 92 1015.9
20260906120344 23 216 0.0 1.6 0.00 0.99 0.00 92 1015.9
20260906115841 23 216 0.0 3.2 0.00 0.99 0.00 92 1015.8
20260906115339 23 216 0.0 3.2 0.00 0.99 0.00 92 1015.8
20260906114856 23 216 1.6 3.2 0.00 0.99 0.00 92 1015.7
20260906114334 23 216 0.0 1.6 0.00 0.99 0.00 92 1015.6
20260906113851 23 216 0.0 1.6 0.00 0.99 0.00 91 1015.7
20260906113347 23 216 0.0 4.8 0.00 0.99 0.00 91 1015.5
20260906112843 23 216 1.6 4.8 0.00 0.99 0.00 91 1015.4
20260906112346 23 232 0.0 1.6 0.00 0.99 0.00 91 1015.4
20260906111841 23 232 0.0 4.8 0.00 0.99 0.00 91 1015.3
20260906111340 23 232 1.6 4.8 0.00 0.99 0.00 91 1015.4
20260906110836 23 211 0.0 3.2 0.00 0.99 0.00 91 1015.2
20260906110332 23 200 0.0 3.2 0.00 0.99 0.00 91 1015.1
20260906105831 23 200 0.0 4.8 0.00 0.99 0.00 91 1015.1
20260906105330 23 200 0.0 6.4 0.00 0.99 0.00 90 1015.0
20260906104845 23 210 1.6 6.4 0.00 0.99 0.00 90 1014.9
20260906104344 23 209 0.0 1.6 0.00 0.99 0.00 90 1014.8
20260906103842 23 209 0.0 3.2 0.00 0.99 0.00 90 1014.8
20260906103337 23 209 0.0 3.2 0.00 0.99 0.00 90 1014.8
20260906102835 23 209 0.0 0.0 0.00 0.99 0.00 90 1014.8
20260906102334 23 209 0.0 0.0 0.00 0.99 0.00 90 1014.7
20260906101851 23 209 0.0 0.0 0.00 0.99 0.00 89 1014.8
20260906101407 23 209 0.0 0.0 0.00 0.99 0.00 90 1014.8
20260906100903 23 209 0.0 4.8 0.00 0.99 0.00 89 1014.8
20260906100338 23 209 0.0 6.4 0.00 0.99 0.00 89 1014.9
20260906095839 23 211 1.6 6.4 0.00 0.99 0.00 89 1015.0
20260906095338 24 204 0.0 3.2 0.00 0.99 0.00 89 1014.9
20260906094836 24 204 0.0 3.2 0.00 0.99 0.00 89 1015.1
20260906094335 24 204 0.0 3.2 0.00 0.99 0.00 89 1015.3
20260906093913 24 204 0.0 3.2 0.00 0.99 0.00 89 1015.3
20260906093348 24 204 0.0 1.6 0.00 0.99 0.00 89 1015.4
20260906092905 24 204 0.0 1.6 0.00 0.99 0.00 88 1015.4
20260906092344 24 294 0.0 1.6 0.00 0.99 0.00 89 1015.5
20260906091842 24 294 0.0 1.6 0.00 0.99 0.00 89 1015.6
20260906091340 24 294 0.0 3.2 0.00 0.99 0.00 88 1015.7
20260906090837 24 294 0.0 3.2 0.00 0.99 0.00 87 1015.6
20260906090332 24 38 0.0 3.2 0.00 0.99 0.00 88 1015.8
20260906085849 24 38 0.0 3.2 0.00 0.99 0.00 87 1015.7
20260906085348 24 38 0.0 4.8 0.00 0.99 0.00 87 1015.7
20260906084846 24 42 1.6 9.7 0.00 0.99 0.00 87 1015.9
20260906084344 24 26 1.6 9.7 0.00 0.99 0.00 88 1015.9
20260906083844 24 5 1.6 6.4 0.00 0.99 0.00 87 1015.9
20260906083340 24 70 1.6 4.8 0.00 0.99 0.00 87 1015.9
20260906082915 24 78 1.6 6.4 0.00 0.99 0.00 87 1015.8
20260906082348 24 36 1.6 6.4 0.00 0.99 0.00 87 1015.8
20260906081906 24 212 0.0 0.0 0.00 0.99 0.00 87 1015.6
20260906081343 24 212 0.0 1.6 0.00 0.99 0.00 87 1015.6
20260906080902 24 212 0.0 8.0 0.00 0.99 0.00 87 1015.8
20260906080336 24 212 3.2 8.0 0.00 0.99 0.00 86 1015.4
20260906075830 24 211 1.6 4.8 0.00 0.99 0.00 86 1015.3
20260906075349 24 211 0.0 4.8 0.00 0.99 0.00 86 1015.3
20260906074846 24 211 0.0 4.8 0.00 0.99 0.00 86 1015.0
20260906074345 24 211 3.2 6.4 0.00 0.99 0.00 86 1014.9
20260906073842 24 207 3.2 6.4 0.00 0.99 0.00 87 1014.9
20260906073338 24 211 3.2 6.4 0.00 0.99 0.00 87 1014.8
20260906072834 24 271 1.6 9.7 0.00 0.99 0.00 87 1014.8
20260906072333 24 185 3.2 8.0 0.00 0.99 0.00 87 1014.9
20260906071830 23 193 3.2 4.8 0.00 0.99 0.00 88 1014.9
20260906071349 23 188 0.0 4.8 0.00 0.99 0.00 90 1014.9
20260906070848 23 188 1.6 4.8 0.00 0.99 0.00 91 1015.2
20260906070343 23 172 1.6 3.2 0.00 0.99 0.00 92 1015.5
20260906065844 23 196 1.6 4.8 0.00 0.99 0.00 92 1015.5
20260906065401 23 126 0.0 3.2 0.00 0.99 0.00 92 1016.0
20260906064838 23 126 1.6 3.2 0.00 0.99 0.00 92 1016.2
20260906064337 23 132 1.6 3.2 0.00 0.99 0.00 93 1016.0
20260906063833 23 131 0.0 3.2 0.00 0.99 0.00 94 1015.7
20260906063408 23 131 0.0 4.8 0.00 0.99 0.00 94 1015.8
20260906062846 23 131 1.6 4.8 0.00 0.99 0.00 94 1015.7
20260906062344 23 131 0.0 0.0 0.00 0.99 0.00 94 1015.6
20260906061859 23 131 0.0 0.0 0.00 0.99 0.00 94 1015.9
20260906061336 23 131 0.0 0.0 0.00 0.99 0.00 94 1015.9
20260906060834 23 131 0.0 0.0 0.00 0.99 0.00 94 1015.7
20260906060410 23 131 0.0 0.0 0.00 0.99 0.00 94 1015.5
20260906055846 23 131 0.0 0.0 0.00 0.99 0.00 94 1015.5
20260906055345 23 131 0.0 0.0 0.00 0.99 0.00 94 1015.4
20260906054840 23 131 0.0 0.0 0.00 0.99 0.00 94 1015.3
20260906054339 23 131 0.0 0.0 0.00 0.99 0.00 93 1015.3
20260906053837 23 131 0.0 0.0 0.00 0.99 0.00 93 1015.4
20260906053333 23 131 0.0 0.0 0.00 0.99 0.00 93 1015.4
20260906052830 23 131 0.0 0.0 0.00 0.99 0.00 93 1015.3
20260906052334 23 131 0.0 0.0 0.00 0.99 0.00 93 1015.3
20260906051907 23 131 0.0 0.0 0.00 0.99 0.00 93 1015.3
20260906051347 23 131 0.0 0.0 0.00 0.99 0.00 93 1015.4
20260906050844 23 131 0.0 0.0 0.00 0.99 0.00 93 1015.5
20260906050359 23 131 0.0 0.0 0.00 0.99 0.00 93 1015.5
20260906045833 23 131 0.0 0.0 0.00 0.99 0.00 93 1015.6
20260906045333 23 131 0.0 0.0 0.00 0.99 0.00 93 1015.6
20260906044831 24 131 0.0 0.0 0.00 0.99 0.00 92 1015.8
20260906044349 24 131 0.0 0.0 0.00 0.99 0.00 92 1015.8
20260906043844 24 131 0.0 0.0 0.00 0.99 0.00 92 1016.0
20260906043339 24 131 0.0 0.0 0.00 0.99 0.00 92 1015.9
20260906042838 24 131 0.0 0.0 0.00 0.99 0.00 92 1015.7
20260906042336 24 131 0.0 0.0 0.00 0.99 0.00 92 1015.8
20260906041854 24 131 0.0 0.0 0.00 0.99 0.00 92 1015.8
20260906041333 24 131 0.0 0.0 0.00 0.99 0.00 92 1015.7
20260906040848 24 131 0.0 0.0 0.00 0.99 0.00 92 1015.8
20260906040344 24 131 0.0 0.0 0.00 0.99 0.99 93 1015.9
20260906035843 25 131 0.0 0.0 0.00 0.99 0.99 93 1015.9
20260906035342 25 131 0.0 0.0 0.00 0.00 0.99 92 1015.5
20260906034841 25 131 0.0 0.0 0.00 0.99 0.99 92 1015.8
20260906034339 25 131 0.0 0.0 0.00 0.99 0.99 92 1015.9
20260906033858 25 131 0.0 0.0 0.00 0.99 0.99 91 1016.0
20260906033329 25 131 0.0 0.0 0.00 0.99 0.99 91 1016.1
20260906032846 25 131 0.0 0.0 0.00 0.99 0.99 92 1016.0
20260906032405 25 131 0.0 0.0 0.00 0.99 0.99 92 1016.0
20260906031842 25 131 0.0 0.0 0.00 0.99 0.99 92 1016.0
20260906031342 25 131 0.0 0.0 0.00 0.99 0.99 92 1015.8
20260906030840 25 131 0.0 0.0 0.00 0.99 0.99 91 1015.8
20260906030335 25 131 0.0 0.0 0.00 0.99 0.99 91 1016.0
20260906025831 25 131 0.0 0.0 0.00 0.99 0.99 91 1016.1
20260906025349 25 131 0.0 0.0 0.00 0.99 0.99 91 1016.0
20260906024847 25 131 0.0 0.0 0.00 0.99 0.99 90 1016.0
20260906024345 25 131 0.0 0.0 0.00 0.99 0.99 89 1015.9
20260906023844 25 131 0.0 0.0 0.00 0.99 0.99 88 1015.7
20260906023339 25 131 0.0 0.0 0.00 0.99 0.99 88 1015.6
20260906022834 25 131 0.0 0.0 0.00 0.99 0.99 88 1015.5
20260906022338 25 131 0.0 0.0 0.00 0.99 0.99 89 1015.4
20260906021835 25 131 0.0 0.0 0.00 0.99 0.99 88 1015.4
20260906021335 25 131 0.0 0.0 0.00 0.99 0.99 87 1015.4
20260906020852 25 131 0.0 0.0 0.00 0.99 0.99 89 1015.5
20260906020348 25 131 0.0 0.0 0.00 0.99 0.99 88 1015.4
20260906015845 26 131 0.0 0.0 0.00 0.99 0.99 87 1015.4
20260906015342 26 131 0.0 0.0 0.00 0.99 0.99 87 1015.4
20260906014838 26 131 0.0 0.0 0.00 0.99 0.99 86 1015.2
20260906014338 26 131 0.0 0.0 0.00 0.99 0.99 87 1015.1
20260906013836 26 131 0.0 0.0 0.00 0.99 0.99 86 1015.2
20260906013352 26 131 0.0 0.0 0.00 0.99 0.99 85 1015.2
20260906012848 26 131 0.0 0.0 0.00 0.99 0.99 85 1015.1
20260906012348 26 131 0.0 0.0 0.00 0.99 0.99 85 1015.0
20260906011844 26 131 0.0 1.6 0.00 0.99 0.99 86 1015.0
20260906011343 26 131 0.0 1.6 0.00 0.99 0.99 85 1015.0
20260906010840 26 131 0.0 0.0 0.00 0.99 0.99 86 1015.2
20260906010357 26 131 0.0 0.0 0.00 0.99 0.99 85 1015.0
20260906005838 26 131 0.0 0.0 0.00 0.99 0.99 85 1014.8
20260906005337 26 131 0.0 0.0 0.00 0.99 0.99 85 1014.8
20260906004852 26 131 0.0 0.0 0.00 0.99 0.99 84 1014.8
20260906004330 26 131 0.0 0.0 0.00 0.99 0.99 84 1014.8
20260906003849 26 131 0.0 1.6 0.00 0.99 0.99 84 1014.7
20260906003345 26 131 0.0 1.6 0.00 0.99 0.99 82 1014.7
20260906002842 27 131 0.0 1.6 0.00 0.99 0.99 81 1014.7
20260906002341 27 131 0.0 1.6 0.00 0.99 0.99 81 1014.7
20260906001838 27 131 0.0 0.0 0.00 0.99 0.99 80 1014.7
20260906001335 27 131 0.0 0.0 0.00 0.99 0.99 80 1014.7
20260906000852 27 131 0.0 0.0 0.00 0.99 0.99 80 1014.7
20260906000407 27 131 0.0 1.6 0.00 0.99 0.99 78 1014.7
20260905235843 27 131 0.0 1.6 0.00 0.99 0.99 79 1014.7
20260905235343 28 131 0.0 1.6 0.00 0.99 0.99 78 1014.8
20260905234841 28 131 0.0 0.0 0.00 0.99 0.99 77 1014.9
20260905234340 28 131 0.0 1.6 0.00 0.99 0.99 76 1014.8
20260905233837 28 131 0.0 4.8 0.00 0.99 0.99 76 1015.1
20260905233336 28 131 1.6 4.8 0.00 0.99 0.99 75 1014.8
20260905232832 28 131 1.6 3.2 0.00 0.99 0.99 75 1014.8
20260905232331 28 131 0.0 4.8 0.00 0.99 0.99 75 1015.0
20260905231830 28 131 1.6 4.8 0.00 0.99 0.99 75 1014.8
20260905231349 28 131 0.0 0.0 0.00 0.99 0.99 73 1014.6
20260905230845 29 131 0.0 0.0 0.00 0.99 0.99 73 1014.5
20260905230340 29 131 0.0 0.0 0.00 0.99 0.99 72 1014.2
20260905225837 29 131 0.0 0.0 0.00 0.99 0.99 72 1014.1
20260905225335 29 131 0.0 0.0 0.00 0.99 0.99 71 1014.3
20260905224346 30 131 0.0 6.4 0.00 0.99 0.99 69 1014.4
20260905223843 30 92 4.8 6.4 0.00 0.99 0.99 68 1014.4
20260905223335 30 91 3.2 4.8 0.00 0.99 0.99 68 1014.4
20260905222834 30 89 3.2 4.8 0.00 0.99 0.99 67 1014.5
20260905222336 30 90 1.6 6.4 0.00 0.99 0.99 67 1014.5
20260905221834 30 62 1.6 6.4 0.00 0.99 0.99 68 1014.5
20260905221353 30 91 0.0 4.8 0.00 0.99 0.99 66 1014.6
20260905220911 31 92 1.6 6.4 0.00 0.99 0.99 67 1014.7
20260905220346 31 49 3.2 4.8 0.00 0.99 0.99 66 1014.9
20260905215842 31 17 0.0 3.2 0.00 0.99 0.99 67 1014.9
20260905215338 31 17 1.6 8.0 0.00 0.99 0.99 65 1014.9
20260905214834 31 10 0.0 12.9 0.00 0.99 0.99 68 1015.0
20260905214353 31 344 3.2 12.9 0.00 0.99 0.99 69 1015.0
20260905213850 31 94 3.2 8.0 0.00 0.99 0.99 67 1015.2
20260905213406 30 10 1.6 8.0 0.00 0.99 0.99 65 1015.0
20260905212841 30 21 3.2 14.5 0.00 0.99 0.99 65 1015.2
20260905212340 31 30 4.8 17.7 0.00 0.99 0.99 63 1015.1
20260905211839 31 339 3.2 17.7 0.00 0.99 0.99 66 1015.3
20260905211337 31 15 6.4 16.1 0.00 0.99 0.99 65 1015.3
20260905210835 31 49 3.2 14.5 0.00 0.99 0.99 66 1015.0
20260905210329 31 17 3.2 14.5 0.00 0.99 0.99 67 1015.2
20260905205846 30 92 6.4 14.5 0.00 0.99 0.99 68 1015.2
20260905205342 30 73 3.2 14.5 0.00 0.99 0.99 69 1015.4
20260905204839 29 5 4.8 11.3 0.00 0.99 0.99 72 1015.3
20260905204338 29 333 3.2 9.7 0.00 0.99 0.99 72 1015.4
20260905203841 29 324 4.8 12.9 0.00 0.99 0.99 73 1015.2
20260905203337 29 290 1.6 12.9 0.00 0.99 0.99 73 1015.3
20260905202835 30 36 3.2 11.3 0.00 0.99 0.99 76 1015.5
20260905202334 30 28 3.2 14.5 0.00 0.99 0.99 71 1015.2
20260905201830 30 21 1.6 14.5 0.00 0.99 0.99 72 1015.4
20260905201350 31 28 4.8 12.9 0.00 0.99 0.99 73 1015.8
20260905200846 32 339 6.4 12.9 0.00 0.99 0.99 69 1015.8
20260905200342 33 5 0.0 1.6 0.00 0.99 0.99 71 1015.1
20260905195838 33 5 0.0 1.6 0.00 0.99 0.99 70 1015.0
20260905195339 33 5 0.0 1.6 0.00 0.99 0.99 70 1015.0
20260905194834 32 5 0.0 3.2 0.00 0.99 0.99 69 1015.1
20260905194333 32 5 0.0 3.2 0.00 0.99 0.99 72 1015.3
20260905193851 32 5 0.0 3.2 0.00 0.99 0.99 74 1015.4
20260905193346 31 188 0.0 1.6 0.00 0.99 0.99 74 1015.4
20260905192842 31 187 0.0 6.4 0.03 0.99 0.99 75 1015.4
20260905192342 30 187 1.6 6.4 0.03 0.99 0.99 79 1015.5
20260905191844 30 201 1.6 8.0 0.03 0.99 0.99 82 1015.4
20260905191338 30 201 1.6 8.0 0.03 0.99 0.99 85 1015.6
20260905190858 29 203 1.6 8.0 0.20 0.99 0.99 85 1015.8
20260905190352 28 201 3.2 6.4 0.46 0.99 0.99 87 1015.7
20260905185845 27 200 0.0 4.8 0.74 0.99 0.99 90 1015.8
20260905185344 27 200 0.0 4.8 0.94 0.99 0.99 93 1015.9
20260905184902 26 200 0.0 4.8 0.99 0.99 0.99 98 1015.9
20260905184339 26 200 1.6 4.8 0.99 0.99 0.99 99 1015.8
20260905183835 25 201 0.0 4.8 0.99 0.99 0.99 98 1015.9
20260905183331 24 200 0.0 3.2 0.99 0.99 0.99 96 1016.0
20260905182849 23 200 0.0 3.2 0.99 0.99 0.99 94 1016.0
20260905182348 23 201 3.2 4.8 0.97 0.97 0.97 90 1016.0
20260905181846 24 200 1.6 16.1 0.97 0.97 0.97 88 1016.3
20260905181345 24 316 9.7 16.1 0.97 0.97 0.97 81 1016.5
20260905180842 25 206 6.4 35.4 0.81 0.81 0.81 82 1016.4
20260905180337 27 153 22.5 37.0 0.56 0.56 0.58 74 1016.7
20260905175834 32 178 3.2 22.5 0.28 0.28 0.28 68 1017.6
20260905175338 34 23 8.0 22.5 0.08 0.08 0.08 64 1016.7
20260905174833 35 73 3.2 11.3 0.00 0.00 0.00 55 1016.2
20260905174352 35 146 6.4 16.1 0.00 0.00 0.00 55 1016.1
20260905173849 35 60 6.4 17.7 0.00 0.00 0.00 54 1016.2
20260905173403 36 144 6.4 17.7 0.00 0.00 0.00 54 1016.2
20260905172840 36 332 9.7 17.7 0.00 0.00 0.00 53 1016.2
20260905172339 36 128 6.4 16.1 0.00 0.00 0.00 53 1016.3
20260905171854 36 254 3.2 17.7 0.00 0.00 0.00 53 1016.3
20260905171332 36 65 4.8 11.3 0.00 0.00 0.00 54 1016.3
20260905170848 36 65 3.2 9.7 0.00 0.00 0.00 55 1016.3
20260905170403 36 161 4.8 12.9 0.00 0.00 0.00 55 1016.3
20260905165838 35 161 8.0 12.9 0.00 0.00 0.00 55 1016.4
20260905165337 35 340 3.2 19.3 0.00 0.00 0.00 55 1016.6
20260905164835 36 65 11.3 19.3 0.00 0.00 0.00 55 1016.7
20260905164334 36 27 8.0 12.9 0.00 0.00 0.00 54 1016.7
20260905163833 35 165 4.8 9.7 0.00 0.00 0.00 58 1016.7
20260905163349 35 139 1.6 4.8 0.00 0.00 0.00 59 1016.9
20260905162843 35 140 1.6 6.4 0.00 0.00 0.00 59 1016.9
20260905162342 35 143 1.6 9.7 0.00 0.00 0.00 59 1017.0
20260905161840 35 19 4.8 11.3 0.00 0.00 0.00 60 1017.0
20260905161342 35 48 8.0 11.3 0.00 0.00 0.00 59 1017.0
20260905160841 34 51 4.8 12.9 0.00 0.00 0.00 61 1017.0
20260905160337 34 236 3.2 16.1 0.00 0.00 0.00 61 1017.1
20260905155835 34 43 4.8 8.0 0.00 0.00 0.00 61 1017.1
20260905155333 34 69 4.8 8.0 0.00 0.00 0.00 62 1017.2
20260905154831 33 331 1.6 4.8 0.00 0.00 0.00 63 1017.1
20260905154410 33 116 1.6 9.7 0.00 0.00 0.00 63 1017.2
20260905153847 33 179 6.4 9.7 0.00 0.00 0.00 62 1017.2
20260905153343 33 140 1.6 4.8 0.00 0.00 0.00 63 1017.4
20260905152839 33 314 1.6 14.5 0.00 0.00 0.00 64 1017.3
20260905152338 34 49 8.0 14.5 0.00 0.00 0.00 62 1017.4
20260905151833 33 85 4.8 8.0 0.00 0.00 0.00 63 1017.5
20260905151333 33 118 3.2 8.0 0.00 0.00 0.00 65 1017.4
20260905150851 33 173 3.2 6.4 0.00 0.00 0.00 65 1017.5
20260905150347 33 140 3.2 6.4 0.00 0.00 0.00 65 1017.5
20260905145845 33 110 1.6 8.0 0.00 0.00 0.00 66 1017.5
20260905145405 33 143 4.8 8.0 0.00 0.00 0.00 67 1017.7
20260905144843 32 104 3.2 6.4 0.00 0.00 0.00 68 1017.5
20260905144341 32 156 1.6 4.8 0.00 0.00 0.00 69 1017.6
20260905143839 32 64 1.6 4.8 0.00 0.00 0.00 67 1017.6
20260905143334 32 64 1.6 4.8 0.00 0.00 0.00 69 1017.7
20260905142831 32 67 1.6 4.8 0.00 0.00 0.00 70 1017.6
20260905142411 31 67 1.6 4.8 0.00 0.00 0.00 71 1017.8
20260905141844 31 67 0.0 6.4 0.00 0.00 0.00 72 1017.8
20260905141341 31 65 0.0 6.4 0.00 0.00 0.00 72 1017.9
20260905140840 31 65 3.2 6.4 0.00 0.00 0.00 73 1017.9
20260905140336 30 65 3.2 4.8 0.00 0.00 0.00 74 1017.9
20260905135834 30 207 1.6 3.2 0.00 0.00 0.00 76 1017.9
20260905135332 29 207 1.6 3.2 0.00 0.00 0.00 77 1018.0
20260905134850 29 207 1.6 3.2 0.00 0.00 0.00 78 1017.9
20260905134409 28 207 1.6 3.2 0.00 0.00 0.00 80 1018.0
20260905133842 28 207 0.0 4.8 0.00 0.00 0.00 81 1018.0
20260905133359 27 205 1.6 4.8 0.00 0.00 0.00 81 1018.1
20260905132836 27 205 0.0 3.2 0.00 0.00 0.00 83 1018.1
20260905132335 27 202 0.0 3.2 0.00 0.00 0.00 83 1018.1
20260905131834 27 202 1.6 4.8 0.00 0.00 0.00 84 1018.1
20260905131337 27 202 1.6 4.8 0.00 0.00 0.00 83 1018.2
20260905130833 27 222 0.0 4.8 0.00 0.00 0.00 84 1018.0
20260905130409 27 222 0.0 0.0 0.00 0.00 0.00 83 1018.2
20260905125844 27 222 0.0 0.0 0.00 0.00 0.00 84 1018.2
20260905125342 26 222 0.0 0.0 0.00 0.00 0.00 86 1018.1
20260905124859 26 222 0.0 0.0 0.00 0.00 0.00 87 1018.1